Powrót do katalogu

STARLINK-4360

AktywnyŁącznośćSSO
NORAD 53482·PAYLOAD·🇺🇸 United States

Wystrzelony Aug 12, 2022 z Vandenberg Space Force Base

Loading…

Następne Przeloty (najbliższe 24 godziny)

TLE

ŚwieżeSource: CelesTrak SupGP

Epoka: Sep 14, 2026, 21:02 UTC

1 53482C 22099T   26257.87687500 -.00028627  00000+0 -17404-2 0  2578
2 53482  97.2857  12.0316 0002082  87.6337 354.2736 15.10562481    15

Śledź STARLINK-4360 w czasie rzeczywistym z AllMySat

Download on the App Store